Weather History for Charleston, SC

Change the Weather History Date:

Saturday, October 22, 2011

  Actual Average Record
Temperature  
Mean Temperature 55 °F 65 °F  
Max Temperature 70 °F 76 °F 87 °F (1939)
Min Temperature 40 °F 55 °F 33 °F (1974)
Degree Days  
Heating Degree Days 10 3  
Month to date heating degree days 47 34  
Since 1 July heating degree days 47 37  
Cooling Degree Days 0 3  
Month to date cooling degree days 72 105  
Year to date cooling degree days 2659 2243  
Growing Degree Days 4 (Base 50)    
Moisture  
Dew Point 44 °F    
Average Humidity 66    
Maximum Humidity 93    
Minimum Humidity 39    
Precipitation  
Precipitation 0.00 in 0.11 in 0.90 in (2006)
Month to date precipitation 1.90 2.91  
Year to date precipitation 34.95 44.65  
Snow  
Snow 0.00 in 0.00 in - ()
Month to date snowfall 0.0  
Since 1 July snowfall 0.0 0.0  
Since 1 September snowfall 0.0 0.0  
Snow Depth 0.00 in    
Sea Level Pressure  
Sea Level Pressure 30.08 in    
Wind  
Wind Speed 4 mph (NNW)    
Max Wind Speed 10 mph    
Max Gust Speed 15 mph    
Visibility 10 miles    
Events      
T = Trace of Precipitation, MM = Missing Value Source: NWS Daily Summary

Daily Weather History Graph

Daily Weather History Graph

Search for Another Location

Airport:

Trip Planner

Search our weather history database for the weather conditions in past years. The results will help you decide how hot, cold, wet, or windy it might be!

Date:

Astronomy

Oct. 22, 2011 Rise Set
Actual Time 7:29 AM EDT 6:39 PM EDT
Civil Twilight 7:04 AM EDT 7:04 PM EDT
Nautical Twilight 6:35 AM EDT 7:33 PM EDT
Astronomical Twilight 6:06 AM EDT 8:01 PM EDT
Moon 2:40 AM EDT (10/22) 3:43 PM EDT (10/22)
Length of Visible Light 11h 59m
Length of Day
11h 09m
Waning Crescent, 24% of the Moon is Illuminated
Oct 22
Waning Crescent
Oct 26
New
Nov 2
First Quarter
Nov 10
Full
Nov 18
Last Quarter

Hourly Weather History & Observations

Time (EDT) Temp. Windchill Dew Point Humidity Pressure Visibility Wind Dir Wind Speed Gust Speed Precip Events Conditions
12:56 AM 47.3 °F - 41.9 °F 82% 30.09 in 10.0 mi Calm Calm - N/A   Clear
1:56 AM 43.7 °F - 41.0 °F 90% 30.09 in 10.0 mi Calm Calm - N/A   Clear
2:56 AM 43.7 °F 42.1 °F 41.0 °F 90% 30.08 in 10.0 mi WNW 3.5 mph - N/A   Clear
3:56 AM 43.7 °F - 41.0 °F 90% 30.07 in 10.0 mi Calm Calm - N/A   Clear
4:56 AM 46.0 °F - 42.1 °F 86% 30.07 in 10.0 mi Calm Calm - N/A   Clear
5:56 AM 42.1 °F 40.2 °F 39.9 °F 92% 30.08 in 10.0 mi NNW 3.5 mph - N/A   Clear
6:56 AM 39.6 °F 37.4 °F 37.4 °F 92% 30.09 in 10.0 mi NNW 3.5 mph - N/A   Partly Cloudy
7:56 AM 44.1 °F 42.5 °F 42.1 °F 93% 30.10 in 10.0 mi NNW 3.5 mph - N/A   Partly Cloudy
8:56 AM 51.1 °F - 46.9 °F 86% 30.12 in 10.0 mi NNW 3.5 mph - N/A   Partly Cloudy
9:56 AM 57.9 °F - 46.9 °F 67% 30.12 in 10.0 mi North 4.6 mph - N/A   Partly Cloudy
10:56 AM 64.0 °F - 46.0 °F 52% 30.12 in 10.0 mi North 6.9 mph - N/A   Partly Cloudy
11:56 AM 64.9 °F - 43.0 °F 45% 30.12 in 10.0 mi Variable 4.6 mph - N/A   Partly Cloudy
12:56 PM 66.0 °F - 43.0 °F 43% 30.10 in 10.0 mi ENE 8.1 mph - N/A   Partly Cloudy
1:56 PM 68.0 °F - 43.0 °F 40% 30.07 in 10.0 mi NW 3.5 mph - N/A   Scattered Clouds
2:56 PM 68.0 °F - 43.0 °F 40% 30.06 in 10.0 mi SE 4.6 mph - N/A   Scattered Clouds
3:56 PM 70.0 °F - 44.1 °F 39% 30.05 in 10.0 mi NNW 4.6 mph - N/A   Partly Cloudy
4:56 PM 69.1 °F - 44.1 °F 40% 30.05 in 10.0 mi Variable 5.8 mph - N/A   Partly Cloudy
5:56 PM 66.0 °F - 45.0 °F 47% 30.06 in 10.0 mi NNE 4.6 mph - N/A   Partly Cloudy
6:56 PM 57.9 °F - 48.0 °F 70% 30.06 in 10.0 mi NNW 5.8 mph - N/A   Partly Cloudy
7:56 PM 55.0 °F - 48.0 °F 77% 30.07 in 10.0 mi NNW 5.8 mph - N/A   Partly Cloudy
8:56 PM 53.1 °F - 48.0 °F 83% 30.09 in 10.0 mi NNW 4.6 mph - N/A   Partly Cloudy
9:56 PM 51.1 °F - 46.9 °F 86% 30.09 in 10.0 mi NNW 5.8 mph - N/A   Clear
10:56 PM 50.0 °F - 46.0 °F 86% 30.09 in 10.0 mi North 4.6 mph - N/A   Clear
11:56 PM 51.1 °F - 46.0 °F 83% 30.08 in 10.0 mi North 5.8 mph - N/A   Clear